#timestamp,LO_Frequency,Hit 
1499155215.0,286046967.0,N
1499155215.9,286046967.0,N
1499155235.8,286046968.8,N
1499155255.6,286046967.7,N
1499155275.4,286046970.3,N
1499155295.3,286046971.7,N
1499155315.1,286046969.5,N
1499155316.0,286046969.5,N
1499155335.8,286046969.4,N
1499155355.7,286046970.8,N
1499155375.5,286046969.5,N
1499155395.3,286046970.1,N
1499155415.2,286046970.7,N
1499155435.9,286046969.9,N
1499155455.7,286046969.5,N
1499155475.6,286046969.3,N
1499155495.4,286046969.3,N
1499155515.2,286046970.0,N
1499155535.0,286046967.9,N
1499155535.9,286046967.9,N
1499155555.8,286046970.7,N
1499155575.6,286046970.7,N
1499155595.4,286046970.8,N
1499155615.3,286046967.7,N
1499155635.1,286046970.6,N
1499155655.8,286046970.1,N
1499155675.7,286046970.3,N
1499155695.5,286046967.8,N
1499155715.3,286046969.1,N
1499155735.2,286046968.5,N
1499155755.9,286046970.7,N
1499155775.7,286046967.5,N
1499155795.6,286046966.8,N
1499155815.4,286046968.9,N
1499155835.2,286046967.1,N
1499155855.0,286046967.1,N
1499155856.0,286046967.1,N
1499155875.8,286046967.1,N
1499155895.6,286046965.3,N
1499155915.4,286046965.9,N
1499155935.3,286046966.0,N
1499155955.1,286046964.8,N
1499155975.8,286046966.0,N
1499155995.7,286046963.7,N
1499156015.5,286046963.4,N
1499156035.3,286046962.0,N
1499156055.2,286046961.8,N
1499156075.9,286046962.6,N
1499156095.7,286046960.1,N
1499156115.6,286046960.4,N
1499156135.4,286046960.7,N
1499156155.2,286046960.5,N
1499156175.1,286046958.6,N
1499156176.0,286046958.6,N
1499156195.8,286046960.6,N
1499156215.6,286046959.9,N
1499156235.5,286046961.2,N
1499156255.3,286046958.7,N
1499156275.1,286046959.1,N
1499156295.8,286046958.7,N
1499156315.7,286046959.1,N
1499156335.5,286046958.7,N
1499156355.3,286046956.9,N
1499156375.2,286046957.1,N
1499156395.9,286046956.9,N
1499156415.7,286046955.3,N
1499156435.6,286046955.0,N
1499156455.4,286046957.7,N
1499156475.2,286046957.7,N
1499156495.1,286046957.7,N
1499156496.0,286046957.7,N
1499156515.8,286046955.7,N
1499156535.6,286046956.1,N
1499156555.5,286046955.3,N
1499156575.3,286046955.5,N
1499156595.1,286046953.3,N
1499156615.8,286046956.4,N
1499156635.7,286046955.1,N
1499156655.5,286046957.1,N
1499156675.3,286046957.9,N
1499156695.2,286046955.7,N
1499156715.9,286046955.5,N
1499156735.7,286046957.3,N
1499156755.6,286046957.9,N
1499156775.4,286046959.2,N
1499156795.2,286046958.6,N
1499156815.1,286046961.1,N
1499156816.0,286046961.1,N
1499156835.8,286046958.7,N
1499156855.6,286046958.7,N
1499156875.5,286046959.4,N
1499156895.3,286046958.4,N
1499156915.1,286046958.9,N
1499156935.8,286046956.8,N
1499156955.7,286046957.6,N
1499156975.5,286046955.8,N
1499156995.3,286046954.0,N
1499157015.2,286046953.9,N
1499157035.9,286046952.1,N
1499157055.7,286046953.0,N
1499157075.6,286046950.4,N
1499157095.4,286046950.7,N
1499157115.2,286046951.6,N
1499157135.1,286046949.0,N
1499157136.0,286046949.0,N
1499157155.8,286046948.6,N
1499157175.6,286046949.1,N
1499157195.5,286046951.2,N
1499157215.3,286046949.5,N
1499157235.1,286046947.8,N
1499157255.8,286046946.1,N
1499157275.7,286046945.7,N
1499157295.5,286046945.6,N
1499157315.3,286046946.2,N
1499157335.2,286046945.8,N
1499157355.0,286046947.7,N
1499157355.9,286046947.7,N
1499157375.7,286046946.0,N
1499157395.6,286046945.5,N
1499157415.4,286046947.9,N
1499157435.2,286046943.8,N
1499157455.1,286046944.6,N
1499157456.0,286046944.6,N
1499157475.8,286046943.2,N
1499157495.6,286046944.7,N
1499157515.5,286046944.7,N
1499157535.3,286046944.9,N
1499157555.1,286046942.1,N
1499157575.9,286046942.6,N
1499157595.7,286046942.4,N
1499157615.5,286046943.1,N
1499157635.4,286046942.1,N
1499157655.2,286046945.1,N
1499157675.0,286046942.5,N
1499157675.9,286046942.5,N
1499157695.8,286046941.3,N
1499157715.6,286046940.8,N
1499157735.4,286046941.4,N
1499157755.2,286046941.8,N
1499157775.1,286046941.0,N
1499157776.0,286046941.0,N
1499157795.8,286046939.6,N
1499157815.6,286046939.2,N
1499157835.5,286046939.3,N
1499157855.3,286046937.7,N
1499157875.1,286046939.7,N
1499157895.9,286046938.9,N
1499157915.7,286046940.3,N
1499157935.5,286046938.2,N
1499157955.4,286046938.8,N
1499157975.2,286046936.3,N
1499157995.0,286046936.0,N
1499157995.9,286046936.0,N
1499158015.8,286046938.5,N
1499158035.6,286046938.3,N
1499158055.4,286046936.0,N
1499158075.2,286046937.1,N
1499158095.1,286046934.4,N
1499158096.0,286046934.4,N
1499158115.8,286046936.0,N
1499158135.6,286046936.7,N
1499158155.5,286046935.2,N
1499158175.3,286046933.5,N
1499158195.1,286046931.0,N
1499158215.9,286046931.2,N
1499158235.7,286046934.0,N
1499158255.5,286046931.5,N
1499158275.4,286046931.9,N
1499158295.2,286046929.5,N
1499158315.0,286046932.0,N
1499158315.9,286046932.0,N
1499158335.8,286046931.7,N
1499158355.6,286046933.4,N
1499158375.4,286046932.7,N
1499158395.3,286046933.8,N
1499158415.1,286046930.9,N
1499158416.0,286046930.9,N
1499158435.8,286046932.0,N
1499158455.7,286046927.8,N
1499158475.5,286046928.4,N
1499158495.3,286046927.8,N
1499158515.1,286046930.0,N
1499158535.9,286046932.2,N
1499158555.7,286046931.8,N
1499158575.5,286046930.5,N
1499158595.4,286046927.9,N
1499158615.2,286046928.0,N
1499158635.0,286046928.6,N
1499158635.9,286046928.6,N
1499158655.8,286046928.9,N
1499158675.6,286046929.0,N
1499158695.4,286046930.8,N
1499158715.3,286046930.2,N
1499158735.1,286046930.3,N
1499158755.8,286046927.3,N
1499158775.7,286046926.0,N
1499158795.5,286046923.1,N
